STARLINK-35027, 65466

Orbit data source: Space-Track

STARLINK-35027, 65466 is a payload satellite owned by SpaceX/Seattle (US) in LEO that was launched on Wed, 03 Sep 2025 UTC via an FALCON 9 launch vehicle from the Air Force Eastern Test Range (AFETR). Payload-class satellites include a variety of spacecraft equipped with specific instruments for various scientific and technological missions. These include communications satellites like Starlink; space stations such as the ISS; scientific satellites like the Hubble; Earth observation satellites from companies like Planet Labs, Umbra, and HawkEye 360; GPS; miniature CubeSats for education and research; and military/defense satellites.

Loading next visibility...
Identifier
65466, 2025-195J
Orbit
LEO
Country
Flag of USUS
Related business
Manufacturer
SpaceX/Seattle
Mission
Operational Commercial Communications
Bus & Motor
STARLINK V2MO, Unknown motor
Mass
575 kg wet, ~530 kg dry
Launch date (UTC)
2025-09-03 (10 months ago)
Launch vehicle
FALCON 9
Launch site
Air Force Eastern Test Range (AFETR)
Object type
Payload
Rocket body
Debris
Shape & HBR
Box + 2 Pan, 17.7 m
Radar Cross Section
36.964 m², Large (>1 m²)

Expand to show TLE details & history
Last TLE update: 23 hours ago

TLE from 23 hours ago
0 STARLINK-35027
1 65466U 25195J   26170.89690431  .00024090  00000-0  72161-3 0  9990
2 65466  53.1592 142.6239 0001488  90.1779 269.9394 15.34409517 45656
Epoch: 2026-06-19T21:31Z
TLE epoch observation values (Epoch: 2026-06-19T21:31:32.532Z)
Latitude
-0.00003°
Longitude
-88.38096°
Altitude
463.577 km
Speed
7.636 km/s
True Right ascension
09h 30m 29s
True Declination
0° 00' 00"
Sunlit
Object was in daylight at epoch
Visualization orbit readout
Latitude
Unknown
Longitude
Unknown
Altitude
Unknown
Speed
Unknown
Apparent Right ascension
Unknown
Apparent Declination
Unknown
Sunlit
N/A
Visualization observer readout
Local Sidereal Time
07:23:31
Azimuth
Unknown
Elevation
Unknown
Doppler factor
Unknown
Orbital elements
Apogee altitude
463.95 km
Perigee altitude
461.914 km
Semi-major axis
6,841.069 km
Eccentricity
0.00015
Inclination
53.1592°
RAAN
142.6239°
Arg. of periapsis
90.1779°
True anomaly
269.92235°
Mean anomaly
269.9394°
Eccentric anomaly
269.93087°
Mean motion
3.83581 °/min
Orbital period
93.85 mins
BSTAR
0.00072161
Loading maneuver chart data...
Computing Atmospheric mass density...
Loading historical data...
Loading historical data...
Loading historical data...
Loading historical data...
Loading historical data...
Loading historical data...
Loading historical data...

Documentation

Showing up to 5 results
|